"Pseudo-MPEC" for P20XRDe

Created 2020 Mar 26 21:07:19 UT using Find_Orb

Click here for an explanation of pseudo-MPECs

 
 Astrometry: 
     P20XRDe  C2020 03 21-]at_I*#i+sappS6B2p=Astrometry)6H:g5dcyL:_d^b-^GbW/2F52
     P20XRDe  C2020 03 21($NrAWbDLP3jredacted;929Mxk!;R_b:qqMS3clickOWbSsdwynF52
     P20XRDe  C2020 03 210jav,##SnXnGqV;B(Bu;LShereWN,+l]for*;explanationGtC[F52

Station data:
(F52) Pan-STARRS 2, Haleakala  (N20.707384 W156.255910)  US/Hawaii. 1.8-m
   Ritchey-Chrétien + CCD.

Orbital elements:  P20XRDe
   Perigee 2020 Mar 20.693119 +/- 37.2 TT = 16:38:05 (JD 2458929.193119)
Epoch 2020 Mar 22.0 TT = JDT 2458930.5                        AutoNEOCP
q 19557.5145 +/- 4.74e+7            (J2000 equator)
H   33.2  G 0.15                    Peri.   62.74087 +/- 80
                                    Node    31.04847 +/- 31
e   1.7220918 +/- 0.259             Incl.   27.19963 +/- 14
From 3 observations 2020 Mar. 21 (35.8 min); mean residual 0".17
Residuals in arcseconds: 
200321 F52  .11+  .12-    200321 F52  .23-  .25+    200321 F52  .12+  .12-    

Ephemerides (geocentric):
Date (UTC) HH   RA              Dec         delta   r     elong  mag " sig PA
---- -- -- --  -------------   -----------  ------ ------ -----  --- ---- ---
2020 03 26 21  14 29 13.320   -03 16 54.44  .01438 1.0101 148.6 25.3  82d 176
2020 03 26 22  14 29 14.150   -03 17 04.71  .01447 1.0102 148.6 25.3  82d 176
2020 03 26 23  14 29 14.960   -03 17 14.84  .01457 1.0103 148.7 25.3  83d 176
2020 03 27 00  14 29 15.751   -03 17 24.85  .01466 1.0104 148.7 25.3  82d 176
2020 03 27 01  14 29 16.522   -03 17 34.74  .01476 1.0105 148.7 25.4  82d 176
2020 03 27 02  14 29 17.274   -03 17 44.50  .01485 1.0106 148.8 25.4  82d 176
2020 03 27 03  14 29 18.007   -03 17 54.14  .01494 1.0107 148.8 25.4  83d 176
2020 03 27 04  14 29 18.722   -03 18 03.66  .01504 1.0108 148.8 25.4  83d 176
2020 03 27 05  14 29 19.418   -03 18 13.07  .01513 1.0109 148.9 25.4  83d 175
2020 03 27 06  14 29 20.097   -03 18 22.36  .01523 1.0110 148.9 25.4  83d 175
2020 03 27 07  14 29 20.758   -03 18 31.55  .01532 1.0111 148.9 25.4  84d 175
2020 03 27 08  14 29 21.402   -03 18 40.62  .01542 1.0112 149.0 25.4  84d 175
2020 03 27 09  14 29 22.029   -03 18 49.59  .01551 1.0113 149.0 25.5  84d 175
2020 03 27 10  14 29 22.639   -03 18 58.45  .01560 1.0114 149.1 25.5  84d 175
2020 03 27 11  14 29 23.233   -03 19 07.22  .01570 1.0115 149.1 25.5  85d 175
2020 03 27 12  14 29 23.810   -03 19 15.88  .01579 1.0116 149.1 25.5  85d 175
2020 03 27 13  14 29 24.372   -03 19 24.44  .01589 1.0117 149.2 25.5  85d 175
2020 03 27 14  14 29 24.918   -03 19 32.90  .01598 1.0118 149.2 25.5  85d 175
2020 03 27 15  14 29 25.449   -03 19 41.28  .01608 1.0119 149.2 25.5  86d 175
2020 03 27 16  14 29 25.964   -03 19 49.55  .01617 1.0120 149.3 25.5  86d 174
2020 03 27 17  14 29 26.465   -03 19 57.74  .01627 1.0121 149.3 25.5  86d 174
2020 03 27 18  14 29 26.951   -03 20 05.84  .01636 1.0122 149.3 25.6  86d 174
2020 03 27 19  14 29 27.422   -03 20 13.85  .01645 1.0123 149.4 25.6  87d 174
2020 03 27 20  14 29 27.879   -03 20 21.77  .01655 1.0124 149.4 25.6  87d 174
2020 03 27 21  14 29 28.322   -03 20 29.61  .01664 1.0125 149.5 25.6  87d 174
2020 03 27 22  14 29 28.752   -03 20 37.37  .01674 1.0126 149.5 25.6  87d 174
2020 03 27 23  14 29 29.167   -03 20 45.04  .01683 1.0127 149.5 25.6  88d 174
2020 03 28 00  14 29 29.570   -03 20 52.64  .01693 1.0128 149.6 25.6  88d 174
2020 03 28 01  14 29 29.959   -03 21 00.15  .01702 1.0129 149.6 25.6  88d 174
2020 03 28 02  14 29 30.335   -03 21 07.59  .01711 1.0130 149.6 25.7  89d 174
2020 03 28 03  14 29 30.698   -03 21 14.96  .01721 1.0131 149.7 25.7  89d 174
2020 03 28 04  14 29 31.049   -03 21 22.25  .01730 1.0132 149.7 25.7  89d 174
2020 03 28 05  14 29 31.387   -03 21 29.47  .01740 1.0133 149.7 25.7  90d 174
2020 03 28 06  14 29 31.713   -03 21 36.61  .01749 1.0134 149.8 25.7  90d 173
2020 03 28 07  14 29 32.027   -03 21 43.69  .01759 1.0135 149.8 25.7  90d 173
2020 03 28 08  14 29 32.329   -03 21 50.70  .01768 1.0136 149.9 25.7  90d 173
2020 03 28 09  14 29 32.619   -03 21 57.64  .01778 1.0137 149.9 25.7  90d 173
2020 03 28 10  14 29 32.897   -03 22 04.51  .01787 1.0138 149.9 25.7  91d 173
2020 03 28 11  14 29 33.164   -03 22 11.32  .01797 1.0139 150.0 25.7  91d 173
2020 03 28 12  14 29 33.420   -03 22 18.07  .01806 1.0140 150.0 25.8  91d 173
2020 03 28 13  14 29 33.664   -03 22 24.75  .01815 1.0141 150.0 25.8  92d 173
2020 03 28 14  14 29 33.898   -03 22 31.37  .01825 1.0142 150.1 25.8  92d 173
2020 03 28 15  14 29 34.121   -03 22 37.93  .01834 1.0143 150.1 25.8  92d 173
2020 03 28 16  14 29 34.333   -03 22 44.43  .01844 1.0144 150.2 25.8  93d 173
2020 03 28 17  14 29 34.534   -03 22 50.87  .01853 1.0145 150.2 25.8  93d 173
2020 03 28 18  14 29 34.725   -03 22 57.26  .01863 1.0146 150.2 25.8  93d 173
2020 03 28 19  14 29 34.906   -03 23 03.58  .01872 1.0147 150.3 25.8  94d 173
2020 03 28 20  14 29 35.077   -03 23 09.86  .01882 1.0148 150.3 25.8  94d 173